Location: Kitchener
(43.4500°N, 80.5000°W)
Time: 15:03:31
(UTC-04:00)

ATLAS 5 CENTAUR R/B - Visible Passes

Search period start: 17 April 2014 00:00
Search period end: 27 April 2014 00:00
Orbit: 734 x 930 km, 63.4° (Epoch: 05 April)

Date Brightness Start Highest point End Pass type
(mag) Time Alt. Az. Time Alt. Az. Time Alt. Az.
17 Apr 2.5 20:32:29 10° NNW 20:38:25 69° NE 20:44:32 10° SE visible
17 Apr 4.2 22:18:09 10° WNW 22:22:44 23° WSW 22:27:09 11° SSW visible
18 Apr 4.2 21:59:34 10° WNW 22:04:17 24° WSW 22:09:04 10° SSW visible
19 Apr 4.2 21:40:59 10° WNW 21:45:49 26° WSW 21:50:43 10° SSW visible
20 Apr 4.2 21:22:25 10° WNW 21:27:21 27° WSW 21:32:22 10° SSW visible
21 Apr 4.2 21:03:50 10° WNW 21:08:52 28° WSW 21:14:00 10° S visible
22 Apr 4.1 20:45:16 10° NW 20:50:24 30° WSW 20:55:37 10° S visible
